THORAD AGENA D DEB, 4652

Orbit data source: Space-Track

THORAD AGENA D DEB, 4652 is space debris in SSO originally from a launch on Wed, 08 Apr 1970 UTC launched from the Air Force Western Test Range (AFWTR). Debris objects in space refer to the collection of defunct objects orbiting the Earth. Examples of debris include non-operational satellites, rocket bodies, and fragments generated from explosions, collisions, or faulty payload assembly.

Loading next visibility...
Identifier
4652, 1970-025AL
Orbit
SSO
Country
Flag of USUS
Related business
Manufacturer
Unknown
Mission
Spacecraft
Bus & Motor
Unknown
Mass
Unknown
Launch date (UTC)
1970-04-08 (56 years ago)
Launch vehicle
Unknown
Launch site
Air Force Western Test Range (AFWTR)
Object type
Payload
Rocket body
Debris
Shape & HBR
Unknown shape, 0.1 m
Radar Cross Section
Small (<0.1 m²)

Expand to show TLE details & history
Last TLE update: 15 hours ago

TLE from 15 hours ago
0 THORAD AGENA D DEB
1 04652U 70025AL  25341.15419413  .00001741  00000-0  14391-2 0  9997
2 04652  99.5989 124.2473 0030105  14.7053 164.7828 13.90226792790531
Epoch: 2025-12-07T03:42Z
TLE epoch observation values (Epoch: 2025-12-07T03:42:02.372Z)
Latitude
0.30377°
Longitude
172.61687°
Altitude
951.873 km
Speed
7.365 km/s
True Right ascension
20h 17m 11s
True Declination
0° 18' 07"
Sunlit
Object was in daylight at epoch
Visualization orbit readout
Latitude
Unknown
Longitude
Unknown
Altitude
Unknown
Speed
Unknown
Apparent Right ascension
Unknown
Apparent Declination
Unknown
Sunlit
N/A
Visualization observer readout
Local Sidereal Time
17:00:50
Azimuth
Unknown
Elevation
Unknown
Doppler factor
Unknown
Orbital elements
Apogee altitude
947.065 km
Perigee altitude
903.092 km
Semi-major axis
7,303.216 km
Eccentricity
0.00301
Inclination
99.5989°
RAAN
124.2473°
Arg. of periapsis
14.7053°
True anomaly
164.87302°
Mean anomaly
164.7828°
Eccentric anomaly
164.82794°
Mean motion
3.47754 °/min
Orbital period
103.52 mins
BSTAR
0.0014391
Loading maneuver chart data...
Computing Atmospheric mass density...

Documentation

Showing up to 5 results
|